Content
SEND FEEDBACK

Daily
Averages
Monthly
Summary
United Arab Emirates

AJMAN, UNITED ARAB EMIRATES


Home > Middle East > United Arab Emirates
Elevation: 108 feet     Latitude: 25 19N     Longitude: 055 31E

WEATHER
 
SELECT A DAY
Number of Records: 178,035;   Date Range: 7/1/96 - 9/18/14
 
SHARE

PRINT THIS DATA

[ ← Previous Day ]
WEATHER ALMANAC - FEBRUARY 13, 2013
[ Next Day → ]
[ °C ]   °F
Weather ElementAverageHighLow
Temperature71.9 °F84.2 °F (12:00 pm)60 °F (7:00 am)
Dewpoint58.1 °F62.6 °F (1:00 pm)53.6 °F (4:00 pm)
Humidity62.6 %89 % (7:00 am)27 % (4:00 pm)
Barometer29.94 in30.01 in (10:00 am)29.92 in (1:00 am)
Wind Speed7 mph15 mph (3:00 pm)
Weather ElementAverage
Visibility6 mi
Wind DirectionSSE (166.8 °)

Weather ElementTotal
Precipitation---
Cooling Degree Days7.1 (Base 65)
Growing Degree Days22.1 (Base 50)
Averaged from 31 records on February 13, 2013
WEATHER CONDITIONS BREAKOUT
WIND DIRECTION BREAKOUT
WEATHER BY HOUR - FEBRUARY 13, 2013
[ °C ]   °F
Local TimeTemperatureDewpointHumidityBarometerVisibilityWind DirectionWind SpeedGust SpeedPrecipitationEventsConditions
1:00 AM64.0 °F58.0 °F75 %29.94 in6.0 miEast (80°)3.5 mph
1:00 AM64.4 °F57.2 °F77 %29.92 inEast (80°)3.5 mphClear
2:00 AM64.4 °F59.0 °F83 %29.92 inEast (90°)4.6 mphClear
3:00 AM64.4 °F59.0 °F83 %29.92 inESE (110°)4.6 mphClear
4:00 AM63.0 °F59.0 °F83 %29.92 in6.0 miEast (100°)4.6 mph
4:00 AM62.6 °F59.0 °F88 %29.92 inVariable4.6 mphClear
5:00 AM62.6 °F59.0 °F88 %29.92 inESE (110°)5.8 mphClear
6:00 AM62.6 °F57.2 °F82 %29.92 inEast (100°)5.8 mphClear
7:00 AM60.0 °F58.0 °F89 %29.95 in6.0 miESE (120°)5.8 mph
7:00 AM60.8 °F57.2 °F88 %29.95 inESE (120°)5.8 mphClear
8:00 AM62.6 °F59.0 °F88 %29.98 inEast (80°)2.3 mphClear
9:00 AM69.8 °F60.8 °F73 %29.98 inSSE (160°)6.9 mphClear
10:00 AM76.0 °F59.0 °F46 %30.01 in6.0 miSouth (180°)9.2 mph
10:00 AM77.0 °F59.0 °F54 %30.01 inSouth (180°)9.2 mphClear
11:00 AM80.6 °F57.2 °F45 %29.98 inSouth (180°)10.4 mphClear
12:00 PM84.2 °F55.4 °F37 %29.98 inSW (220°)9.2 mphClear
1:00 PM84.0 °F62.0 °F38 %29.96 in6.0 miNNW (330°)11.5 mph
1:00 PM84.2 °F62.6 °F48 %29.95 inNNW (330°)11.5 mphClear
2:00 PM82.4 °F59.0 °F45 %29.95 inWNW (300°)12.7 mphClear
3:00 PM80.6 °F57.2 °F45 %29.92 inWest (280°)15.0 mphClear
4:00 PM82.0 °F54.0 °F27 %29.92 in6.0 miWest (270°)13.8 mph
4:00 PM82.4 °F53.6 °F37 %29.92 inWest (270°)13.8 mphClear
5:00 PM80.6 °F53.6 °F39 %29.92 inWest (270°)9.2 mphClear
6:00 PM77.0 °F59.0 °F54 %29.92 inNW (310°)9.2 mphClear
7:00 PM74.0 °F59.0 °F49 %29.94 in6.0 miWNW (300°)5.8 mphScattered Clouds
7:00 PM73.4 °F59.0 °F61 %29.92 inWNW (300°)5.8 mphClear
8:00 PM71.6 °F59.0 °F64 %29.95 inCalmClear
9:00 PM69.8 °F57.2 °F64 %29.95 inVariable2.3 mphClear
10:00 PM69.0 °F58.0 °F59 %29.95 in6.0 miSSE (150°)4.6 mph
10:00 PM69.8 °F57.2 °F64 %29.95 inSSE (150°)4.6 mphClear
11:00 PM68.0 °F57.2 °F68 %29.95 inVariable2.3 mphClear
Hourly data recorded from OMSJ, located miles away from Ajman, United Arab Emirates







STORIES FROM OUR PARTNERS